Vorticity
4 5 11 11 12 13 8 8 6 8 11 10 10 8 13 17 12 12 10 10 14 9 4 6 17 14 12 12 3 18 11 9 13 9 9 3 7 5 6 3 14 -1 15 4 -8 16 -2
5 5 8 12 11 16 9 4 5 5 10 10 10 8 12 14 14 10 11 10 5 5 9 -2 18 15 12 12 10 -8 25 15 12 6 5 6 7 7 10 4 2 19 12 1 18 2 15
6 5 8 11 13 12 16 9 8 5 9 11 9 6 13 14 14 8 12 9 5 -6 2 -7 14 18 14 14 13 7 -19 26 8 9 11 8 7 8 3 16 12 2 3 16 8 12 8
8 7 8 10 11 13 14 13 6 5 6 9 12 11 10 15 12 12 8 11 10 6 10 3 5 20 10 9 7 13 11 4 19 14 8 13 7 12 0 2 16 5 14 2 9 9 9
8 7 8 9 10 12 13 15 8 5 3 8 10 9 6 13 14 13 11 12 9 13 -1 8 7 17 12 13 10 8 9 5 23 10 13 9 8 7 8 6 19 6 14 6 10 9 3
9 8 6 9 9 10 14 16 14 6 5 2 4 14 9 5 15 13 15 7 12 17 1 9 10 12 14 12 13 6 12 8 20 8 9 6 7 3 8 4 -3 9 -4 20 15 3 7
9 8 6 5 8 9 9 12 17 16 6 5 2 12 15 8 9 16 16 8 14 11 6 -6 -8 15 27 19 12 5 17 3 15 12 4 4 0 -0 5 6 -3 11 2 10 5 14 9
10 9 8 6 5 6 9 11 11 23 11 8 3 11 22 4 13 14 13 9 11 8 11 3 6 5 8 28 12 12 3 4 11 6 1 10 -3 9 8 4 -3 15 7 -1 10 5 12
9 9 9 9 9 8 6 12 9 14 16 7 8 6 22 11 20 10 13 11 8 10 4 4 4 5 12 2 16 11 9 9 8 8 7 4 14 -2 2 5 4 9 3 15 8 5 9
6 5 4 4 4 6 8 7 12 9 15 16 7 6 12 6 16 12 13 15 12 9 9 23 30 9 4 9 9 10 15 5 8 7 14 0 -18 36 4 17 -3 -2 5 6 12 11 -7
4 4 4 4 5 6 4 5 8 11 9 13 15 9 8 13 10 16 14 12 12 17 11 13 22 8 13 9 2 16 17 9 5 1 -1 2 12 -6 35 -10 13 6 16 10 13 14 -11
4 4 4 6 8 8 9 10 5 8 9 10 12 14 11 10 14 10 13 14 8 6 9 11 11 16 15 9 2 15 12 15 4 15 12 -12 23 18 11 22 13 -0 7 13 19 6 21
3 3 5 7 7 6 6 7 8 9 6 9 9 12 13 10 11 15 13 13 5 7 6 11 8 12 20 16 6 2 22 4 -5 10 14 29 -2 16 10 18 26 10 14 -1 7 10 4
3 3 4 6 6 6 6 4 5 6 6 7 7 8 11 12 11 15 11 11 9 4 9 -9 -0 10 9 17 13 12 8 6 -3 -1 42 -1 28 3 24 6 -12 -1 0 -47 -11 -5 20
4 3 4 5 6 4 5 6 5 6 6 7 8 7 11 11 13 14 9 10 8 10 12 6 17 15 12 23 -10 23 15 -3 12 -14 -7 23 4 35 -16 17 9 37 16 -7 -45 21 32
6 6 5 4 5 6 6 5 6 7 9 9 8 9 9 12 13 14 13 -11 0 12 3 3 5 9 -5 19 20 9 1 31 35 -7 -1 12 13 13 36 7 20 -6 22 13 -6 14 4
9 7 7 7 7 8 8 9 8 8 8 9 10 12 11 13 13 14 9 -2 14 14 5 16 6 -1 -2 6 20 36 -5 -2 6 19 50 2 -25 33 18 15 -1 11 19 -8 12 -38 -2
9 8 9 9 9 10 9 10 10 9 10 12 10 15 11 14 18 12 15 10 13 3 5 -3 -3 1 -6 6 19 19 3 27 11 19 16 17 32 19 3 13 -4 13 14 1 -21 20 37
7 7 8 8 9 10 10 10 11 11 11 12 11 16 18 9 15 6 12 9 10 13 21 11 6 -1 -1 -0 13 26 0 20 21 37 28 49 49 7 68 33 14 1 3 7 -2 -2 10
7 7 7 8 8 9 10 10 10 11 13 14 17 15 13 16 18 -1 9 18 19 12 12 19 17 12 11 11 12 -0 -12 1 -13 -8 34 26 33 -12 -21 13 26 18 18 -6 5 5 2
7 7 8 8 9 10 10 10 10 11 13 13 14 11 12 -3 9 13 14 6 15 14 16 16 16 20 6 8 9 11 20 22 20 13 10 16 -8 12 16 -7 -20 22 27 26 -6 -24 -1
8 8 8 8 9 9 9 10 9 10 11 15 11 11 10 15 11 11 9 7 13 10 8 6 9 12 12 10 0 -10 -1 -14 11 5 2 25 6 9 17 14 13 28 -13 36 14 21 -3
8 8 9 9 9 9 9 9 9 10 11 11 10 9 8 4 6 5 6 4 6 3 20 -1 4 9 10 13 10 4 3 6 4 2 -5 -4 9 30 26 25 38 47 7 9 9 19 11
9 9 9 8 8 8 8 8 9 9 10 10 9 8 7 3 8 7 7 13 3 6 4 3 6 6 5 6 12 14 14 15 12 8 17 7 9 14 14 24 5 14 33 41 3 13 4
9 9 9 8 8 8 8 8 9 9 9 10 9 9 9 8 7 19 1 10 10 8 6 8 12 10 9 9 20 38 31 38 26 17 14 14 12 -6 -0 18 -4 9 23 22 20 27 5
9 9 9 8 8 8 8 8 8 9 9 9 9 9 10 9 11 14 9 7 6 15 13 13 11 11 20 17 24 11 0 -4 18 14 43 20 17 -7 15 6 1 11 21 22 22 26 33
9 10 9 9 8 9 8 8 8 8 8 9 9 9 11 11 10 7 13 15 9 13 12 21 24 31 32 23 10 9 11 3 12 6 27 15 23 0 4 5 19 12 15 26 -9 4 29
10 10 9 9 9 9 9 9 9 8 8 9 8 10 11 11 13 13 10 14 25 19 14 11 23 32 17 20 15 7 16 12 15 -4 14 13 4 24 12 2 22 6 27 -1 9 30 34
10 9 8 10 10 9 9 9 9 9 8 9 10 11 11 13 9 16 18 15 24 15 11 16 10 -8 9 8 22 6 10 7 10 6 15 9 -14 2 -2 18 9 28 23 7 28 19 23
Height
3093 3088 3083 3079 3077 3073 3071 3070 3066 3063 3060 3058 3055 3052 3049 3046 3046 3046 3046 3047 3048 3048 3050 3049 3050 3051 3053 3057 3061 3062 3065 3069 3072 3077 3081 3085 3088 3091 3094 3096 3101 3102 3105 3104 3107 3112 3111
3092 3087 3082 3078 3075 3072 3070 3068 3066 3063 3059 3056 3053 3051 3048 3045 3045 3045 3045 3045 3046 3046 3048 3048 3048 3049 3052 3056 3058 3061 3062 3066 3070 3074 3078 3082 3087 3091 3092 3094 3100 3099 3101 3103 3106 3108 3108
3092 3086 3082 3078 3074 3071 3067 3064 3063 3061 3058 3055 3052 3049 3047 3045 3043 3043 3043 3044 3045 3046 3045 3046 3046 3046 3049 3053 3054 3057 3061 3063 3067 3072 3076 3081 3086 3088 3090 3092 3095 3097 3099 3100 3102 3102 3105
3091 3086 3081 3077 3073 3069 3066 3063 3061 3060 3056 3053 3050 3048 3046 3044 3042 3041 3042 3042 3043 3045 3045 3045 3044 3045 3047 3050 3053 3055 3059 3061 3064 3069 3074 3080 3083 3084 3087 3089 3092 3095 3098 3098 3099 3100 3104
3089 3085 3081 3077 3073 3068 3065 3062 3060 3057 3055 3052 3049 3047 3045 3043 3041 3039 3039 3040 3041 3043 3044 3043 3044 3045 3047 3048 3050 3053 3056 3060 3062 3066 3071 3076 3079 3080 3084 3087 3091 3091 3093 3096 3098 3098 3101
3088 3085 3082 3077 3073 3069 3064 3060 3057 3056 3054 3051 3048 3045 3044 3041 3040 3038 3038 3038 3039 3041 3043 3043 3044 3047 3045 3046 3048 3051 3054 3058 3060 3064 3069 3073 3075 3077 3080 3083 3083 3084 3090 3091 3092 3095 3097
3089 3085 3082 3078 3073 3069 3065 3061 3056 3053 3052 3049 3047 3043 3041 3040 3039 3038 3038 3038 3041 3041 3041 3043 3043 3043 3042 3044 3046 3049 3053 3055 3058 3062 3064 3067 3071 3069 3071 3077 3083 3086 3089 3089 3088 3091 3093
3089 3085 3082 3078 3073 3069 3065 3061 3056 3051 3049 3048 3046 3042 3040 3039 3036 3035 3035 3035 3037 3038 3039 3040 3040 3041 3042 3043 3045 3046 3050 3054 3055 3058 3061 3065 3063 3068 3075 3076 3079 3082 3084 3085 3087 3089 3092
3089 3085 3082 3078 3073 3069 3066 3061 3057 3052 3049 3047 3044 3041 3038 3036 3034 3033 3032 3033 3034 3035 3037 3037 3039 3040 3040 3042 3043 3044 3047 3050 3053 3054 3055 3058 3061 3065 3068 3072 3076 3078 3079 3079 3083 3085 3087
3090 3086 3082 3078 3073 3069 3065 3062 3057 3052 3049 3046 3044 3041 3038 3036 3035 3033 3033 3033 3033 3033 3036 3036 3035 3037 3038 3040 3041 3042 3045 3049 3049 3052 3055 3057 3059 3060 3064 3067 3072 3075 3076 3079 3081 3083 3086
3090 3086 3082 3077 3074 3070 3066 3061 3058 3053 3049 3045 3042 3040 3038 3034 3032 3032 3033 3031 3032 3034 3032 3034 3031 3031 3033 3037 3039 3039 3041 3044 3046 3048 3051 3051 3053 3057 3059 3061 3067 3073 3074 3077 3079 3082 3081
3089 3086 3082 3077 3074 3069 3066 3061 3058 3053 3049 3045 3042 3039 3037 3034 3032 3031 3029 3030 3032 3035 3031 3030 3030 3028 3030 3033 3035 3035 3037 3040 3043 3045 3046 3050 3050 3053 3056 3061 3064 3068 3071 3074 3076 3079 3075
3088 3085 3082 3077 3072 3069 3065 3060 3057 3053 3049 3045 3041 3038 3035 3033 3030 3027 3027 3028 3031 3029 3030 3030 3028 3029 3029 3030 3031 3033 3033 3034 3038 3042 3041 3043 3045 3047 3050 3054 3057 3062 3066 3072 3075 3072 3064
3086 3083 3080 3077 3071 3068 3064 3059 3055 3052 3048 3044 3041 3037 3035 3032 3029 3028 3029 3032 3033 3029 3027 3027 3026 3027 3027 3027 3028 3028 3030 3030 3033 3035 3036 3037 3040 3038 3040 3042 3043 3049 3055 3055 3056 3056 3057
3084 3081 3078 3074 3070 3066 3062 3058 3054 3050 3046 3042 3039 3036 3034 3031 3029 3029 3029 3028 3025 3027 3026 3025 3026 3024 3023 3024 3025 3024 3024 3025 3026 3029 3032 3031 3031 3031 3034 3038 3042 3045 3044 3052 3053 3051 3049
3081 3078 3074 3071 3069 3064 3059 3055 3051 3047 3044 3040 3037 3034 3032 3030 3028 3028 3029 3026 3026 3024 3023 3024 3023 3023 3021 3021 3020 3019 3019 3018 3018 3019 3023 3023 3026 3025 3029 3033 3036 3035 3043 3048 3048 3045 3042
3077 3074 3071 3067 3065 3061 3056 3053 3049 3044 3040 3036 3033 3030 3029 3026 3025 3026 3024 3023 3020 3020 3021 3021 3020 3018 3018 3017 3015 3013 3011 3012 3012 3012 3014 3015 3019 3019 3022 3022 3026 3030 3032 3036 3039 3036 3030
3073 3069 3066 3064 3060 3056 3053 3049 3045 3041 3037 3033 3029 3027 3024 3022 3022 3019 3017 3016 3015 3016 3017 3016 3015 3014 3013 3013 3011 3010 3008 3007 3005 3007 3007 3008 3009 3011 3012 3014 3018 3020 3023 3026 3025 3028 3027
3068 3065 3062 3059 3056 3052 3048 3045 3040 3037 3034 3030 3026 3022 3020 3018 3016 3015 3014 3012 3012 3011 3011 3010 3010 3010 3009 3009 3008 3004 3003 3002 3003 3001 3002 3002 3001 3004 3005 3009 3008 3008 3014 3016 3021 3024 3018
3064 3061 3058 3055 3051 3048 3044 3040 3036 3033 3030 3027 3025 3021 3016 3014 3012 3012 3010 3010 3009 3007 3006 3006 3005 3005 3005 3003 3003 3000 2999 2998 2998 2997 2998 2996 2994 2994 2992 2993 2996 3000 3003 3008 3013 3013 3011
3059 3056 3053 3050 3047 3044 3040 3037 3033 3030 3027 3025 3021 3020 3016 3013 3010 3008 3008 3007 3006 3004 3003 3001 2998 2999 2999 2998 2997 2995 2994 2993 2992 2993 2992 2993 2991 2989 2988 2989 2990 2993 2994 2998 3000 3003 3005
3053 3050 3048 3045 3042 3039 3036 3034 3030 3027 3024 3023 3019 3017 3015 3011 3009 3007 3004 3002 3001 2999 2998 2997 2996 2994 2992 2992 2992 2990 2990 2989 2987 2986 2986 2985 2983 2983 2983 2983 2983 2985 2987 2989 2992 2995 2996
3048 3045 3043 3040 3036 3034 3032 3029 3028 3024 3020 3018 3016 3014 3011 3009 3006 3004 3002 3000 2996 2994 2993 2991 2989 2987 2987 2986 2984 2982 2982 2982 2981 2981 2981 2981 2979 2979 2977 2977 2978 2979 2975 2980 2984 2986 2989
3042 3039 3037 3034 3031 3029 3027 3024 3022 3020 3017 3015 3011 3010 3007 3004 3001 2999 2996 2994 2992 2990 2987 2986 2983 2980 2979 2976 2976 2973 2972 2972 2972 2972 2973 2973 2975 2976 2973 2974 2974 2963 2966 2970 2974 2978 2980
3036 3034 3031 3029 3026 3024 3022 3019 3016 3014 3012 3010 3007 3004 3001 2997 2994 2991 2987 2985 2982 2981 2979 2976 2975 2973 2970 2969 2968 2966 2963 2962 2960 2961 2964 2965 2968 2969 2969 2967 2963 2960 2961 2963 2965 2968 2972
3031 3029 3026 3024 3021 3018 3016 3013 3010 3008 3006 3003 3001 2998 2995 2991 2987 2984 2980 2976 2972 2969 2967 2966 2964 2963 2962 2961 2961 2960 2958 2955 2955 2952 2953 2958 2960 2964 2963 2962 2956 2954 2956 2957 2960 2961 2963
3026 3024 3022 3019 3016 3013 3010 3008 3005 3002 2999 2997 2994 2991 2988 2985 2981 2977 2973 2970 2965 2961 2958 2956 2955 2954 2953 2953 2954 2954 2952 2950 2950 2948 2949 2952 2953 2955 2956 2955 2952 2950 2952 2954 2960 2959 2955
3022 3018 3015 3013 3011 3008 3005 3002 2999 2996 2993 2991 2987 2983 2980 2976 2972 2967 2964 2961 2958 2954 2953 2952 2951 2948 2948 2948 2949 2948 2945 2944 2944 2943 2943 2947 2948 2949 2951 2951 2949 2947 2949 2954 2954 2952 2954
3015 3012 3009 3007 3004 3002 2999 2996 2993 2989 2986 2983 2980 2975 2972 2969 2966 2961 2956 2954 2951 2949 2947 2947 2948 2946 2944 2944 2944 2943 2941 2940 2939 2939 2940 2944 2943 2942 2944 2943 2941 2942 2947 2950 2951 2954 2956